Weather History for Asheville, NC

Change the Weather History Date:

Sunday, May 15, 2011

  Actual Average Record
Temperature  
Mean Temperature 61 °F 63 °F  
Max Temperature 69 °F 75 °F 88 °F (1933)
Min Temperature 52 °F 51 °F 34 °F (1910)
Degree Days  
Heating Degree Days 4 4  
Month to date heating degree days 63 72  
Since 1 July heating degree days 4212 4144  
Cooling Degree Days 0 1  
Month to date cooling degree days 32 14  
Year to date cooling degree days 60 22  
Growing Degree Days 10 (Base 50)    
Moisture  
Dew Point 51 °F    
Average Humidity 75    
Maximum Humidity 93    
Minimum Humidity 56    
Precipitation  
Precipitation 0.00 in 0.12 in 1.74 in (2014)
Month to date precipitation 1.57 1.71  
Year to date precipitation 17.94 16.30  
Snow  
Snow 0.00 in 0.00 in 0.00 in ()
Month to date snowfall 0.0 0.0  
Since 1 July snowfall 20.8 9.9  
Snow Depth 0.00 in    
Sea Level Pressure  
Sea Level Pressure 29.64 in    
Wind  
Wind Speed 11 mph (NNW)    
Max Wind Speed 23 mph    
Max Gust Speed 30 mph    
Visibility 10 miles    
Events      
T = Trace of Precipitation, MM = Missing Value Source: NWS Daily Summary

Daily Weather History Graph

Daily Weather History Graph

Search for Another Location

Airport:

Trip Planner

Search our weather history database for the weather conditions in past years. The results will help you decide how hot, cold, wet, or windy it might be!

Date:

Astronomy

May. 15, 2011 Rise Set
Actual Time 6:25 AM EDT 8:27 PM EDT
Civil Twilight 5:57 AM EDT 8:55 PM EDT
Nautical Twilight 5:23 AM EDT 9:30 PM EDT
Astronomical Twilight 4:46 AM EDT 10:07 PM EDT
Moon 6:47 PM EDT (5/15) 4:44 AM EDT (5/15)
Length of Visible Light 14h 58m
Length of Day
14h 01m
Waxing Gibbous, 95% of the Moon is Illuminated
May 15
Waxing Gibbous
May 17
Full
May 24
Last Quarter
Jun 1
New
Jun 8
First Quarter

Hourly Weather History & Observations

Time (EDT) Temp. Dew Point Humidity Pressure Visibility Wind Dir Wind Speed Gust Speed Precip Events Conditions
12:54 AM 59.0 °F 55.9 °F 90% 29.64 in 10.0 mi NNW 8.1 mph - N/A   Clear
1:54 AM 57.9 °F 55.0 °F 90% 29.63 in 10.0 mi NNW 5.8 mph - N/A   Scattered Clouds
2:54 AM 55.4 °F 53.6 °F 94% 29.67 in 10.0 mi NW 4.6 mph - N/A   Scattered Clouds
3:54 AM 55.9 °F 54.0 °F 93% 29.60 in 10.0 mi North 6.9 mph - N/A   Clear
4:54 AM 55.9 °F 53.1 °F 90% 29.60 in 10.0 mi North 5.8 mph - N/A   Mostly Cloudy
5:54 AM 55.9 °F 53.1 °F 90% 29.61 in 10.0 mi NNW 8.1 mph - N/A   Overcast
6:54 AM 55.0 °F 53.1 °F 93% 29.62 in 10.0 mi NNW 6.9 mph - N/A   Mostly Cloudy
7:54 AM 57.2 °F 53.6 °F 88% 29.68 in 10.0 mi NNW 11.5 mph - N/A   Overcast
8:54 AM 57.9 °F 52.0 °F 81% 29.64 in 10.0 mi North 10.4 mph - N/A   Overcast
9:35 AM 60.8 °F 51.8 °F 72% 29.69 in 10.0 mi North 8.1 mph - N/A   Mostly Cloudy
9:42 AM 60.8 °F 51.8 °F 72% 29.69 in 10.0 mi NNW 12.7 mph - N/A   Scattered Clouds
9:54 AM 60.8 °F 51.8 °F 72% 29.69 in 10.0 mi North 10.4 mph - N/A   Partly Cloudy
10:54 AM 63.0 °F 52.0 °F 67% 29.64 in 10.0 mi North 11.5 mph 17.3 mph N/A   Partly Cloudy
11:54 AM 64.9 °F 51.1 °F 61% 29.62 in 10.0 mi NNW 16.1 mph 21.9 mph N/A   Clear
12:54 PM 66.0 °F 51.1 °F 59% 29.61 in 10.0 mi NNW 13.8 mph 17.3 mph N/A   Scattered Clouds
1:54 PM 64.9 °F 48.9 °F 56% 29.60 in 10.0 mi Variable 6.9 mph 17.3 mph N/A   Mostly Cloudy
2:54 PM 64.9 °F 50.0 °F 58% 29.60 in 10.0 mi NNW 12.7 mph - N/A   Overcast
3:54 PM 66.0 °F 50.0 °F 56% 29.58 in 10.0 mi NW 6.9 mph 16.1 mph N/A   Mostly Cloudy
4:54 PM 66.9 °F 50.0 °F 54% 29.58 in 10.0 mi NNW 16.1 mph 23.0 mph N/A   Mostly Cloudy
5:54 PM 62.1 °F 50.0 °F 65% 29.61 in 10.0 mi NNW 19.6 mph 26.5 mph N/A   Overcast
6:54 PM 60.1 °F 50.0 °F 69% 29.63 in 10.0 mi North 12.7 mph 24.2 mph N/A   Overcast
7:54 PM 57.9 °F 48.9 °F 72% 29.64 in 10.0 mi North 12.7 mph 23.0 mph N/A   Overcast
8:54 PM 55.9 °F 48.0 °F 75% 29.66 in 10.0 mi North 11.5 mph 21.9 mph N/A   Mostly Cloudy
9:54 PM 54.0 °F 48.0 °F 80% 29.67 in 10.0 mi North 11.5 mph - N/A   Clear
10:54 PM 53.1 °F 48.0 °F 83% 29.68 in 10.0 mi NNW 11.5 mph - N/A   Clear
11:54 PM 52.0 °F 48.9 °F 89% 29.67 in 10.0 mi North 11.5 mph - N/A   Clear